Location: Chester
(43.2628°N, 72.5951°W)
Time: 01:20:15
(UTC-05:00)

ISS - Pass Details

Date: 24 January 2021
Orbit: 417 x 422 km, 51.6° (Epoch: 07 March)

Event Time Altitude Azimuth Distance (km) Brightness Sun altitude
Rises 18:56:56 0° 285° (WNW) 2,373 1.3 -22.6°
Reaches altitude 10° 18:59:24 10° 302° (WNW) 1,510 -0.2 -23.0°
Enters shadow 19:01:19 19° 335° (NNW) 1,073 -1.5 -23.4°
